1547470801.18,26702,0.0,0.0,-9.99,-10.67,-10.57,0,*5B
1547470802.4,26703,0.0,0.0,-10.01,-10.57,-10.57,0,*60
1547470803.67,26704,0.0,0.0,-9.99,-10.67,-10.57,0,*5D
1547470804.96,26705,0.0,0.0,-9.99,-10.67,-10.67,0,*5F
1547470806.23,26706,0.0,0.0,-9.99,-10.57,-10.67,0,*5F
1547470807.49,26707,0.0,0.0,-9.99,-10.57,-10.67,0,*5E
1547470808.79,26708,0.0,0.0,-9.99,-10.67,-10.67,0,*52
1547470810.08,26709,0.0,0.0,-9.99,-10.71,-10.71,0,*53
1547470811.37,26710,0.0,0.0,-9.99,-10.67,-10.67,0,*5B
1547470812.62,26711,0.0,0.0,-10.01,-10.67,-10.57,0,*60
1547470813.89,26712,0.0,0.0,-9.99,-10.57,-10.67,0,*5A
1547470815.1,26713,0.0,0.0,-10.01,-10.57,-10.57,0,*61
1547470816.37,26714,0.0,0.0,-9.99,-10.67,-10.53,0,*58
1547470817.63,26715,0.0,0.0,-9.99,-10.71,-10.57,0,*5A
1547470818.88,26716,0.0,0.0,-10.01,-10.67,-10.57,0,*67
1547470820.15,26717,0.0,0.0,-9.99,-10.67,-10.57,0,*5F
1547470821.45,26718,0.0,0.0,-9.99,-10.67,-10.67,0,*53
1547470822.69,26719,0.0,0.0,-10.01,-10.67,-10.53,0,*6C
1547470823.94,26720,0.0,0.0,-10.01,-10.67,-10.57,0,*62
1547470825.21,26721,0.0,0.0,-9.99,-10.67,-10.57,0,*5A
1547470826.46,26722,0.0,0.0,-10.01,-10.67,-10.57,0,*60
1547470827.72,26723,0.0,0.0,-9.99,-10.57,-10.67,0,*58
1547470828.99,26724,0.0,0.0,-9.99,-10.67,-10.57,0,*5F
1547470830.26,26725,0.0,0.0,-9.99,-10.67,-10.57,0,*5E
1547470831.52,26726,0.0,0.0,-9.99,-10.67,-10.57,0,*5D
1547470832.79,26727,0.0,0.0,-9.99,-10.67,-10.57,0,*5C
1547470834.04,26728,0.0,0.0,-10.01,-10.57,-10.67,0,*6A
1547470835.32,26729,0.0,0.0,-10.01,-10.67,-10.67,0,*68
1547470836.55,26730,0.0,0.0,-9.99,-10.57,-10.57,0,*59
1547470837.76,26731,0.0,0.0,-10.01,-10.53,-10.57,0,*65
1547470839.01,26732,0.0,0.0,-10.01,-10.67,-10.53,0,*65
1547470840.26,26733,0.0,0.0,-10.01,-10.67,-10.57,0,*60
1547470841.51,26734,0.0,0.0,-10.01,-10.67,-10.57,0,*67
1547470842.74,26735,0.0,0.0,-9.99,-10.53,-10.57,0,*58
1547470844.01,26736,0.0,0.0,-9.99,-10.67,-10.57,0,*5C
1547470845.27,26737,0.0,0.0,-9.99,-10.67,-10.57,0,*5D
1547470846.54,26738,0.0,0.0,-9.99,-10.71,-10.57,0,*55
1547470847.8,26739,0.0,0.0,-9.99,-10.67,-10.57,0,*53
1547470849.05,26740,0.0,0.0,-10.01,-10.67,-10.53,0,*60
1547470850.32,26741,0.0,0.0,-9.99,-10.67,-10.57,0,*5C
1547470851.57,26742,0.0,0.0,-10.01,-10.67,-10.57,0,*66
1547470852.85,26743,0.0,0.0,-10.01,-10.67,-10.67,0,*64
1547470854.11,26744,0.0,0.0,-10.03,-10.63,-10.57,0,*66
1547470855.41,26745,0.0,0.0,-10.03,-10.63,-10.63,0,*60
1547470856.68,26746,0.0,0.0,-10.03,-10.71,-10.57,0,*67
1547470857.92,26747,0.0,0.0,-10.01,-10.57,-10.71,0,*64
1547470859.14,26748,0.0,0.0,-10.01,-10.57,-10.57,0,*6F
1547470860.39,26749,0.0,0.0,-10.01,-10.67,-10.57,0,*6D
1547470861.67,26750,0.0,0.0,-10.01,-10.67,-10.67,0,*66
1547470862.92,26751,0.0,0.0,-10.01,-10.67,-10.57,0,*64
1547470864.17,26752,0.0,0.0,-10.01,-10.67,-10.57,0,*67
1547470865.42,26753,0.0,0.0,-10.01,-10.67,-10.57,0,*66
1547470866.65,26754,0.0,0.0,-9.99,-10.57,-10.57,0,*5B
1547470867.87,26755,0.0,0.0,-10.01,-10.57,-10.57,0,*63
1547470869.12,26756,0.0,0.0,-10.01,-10.67,-10.57,0,*63
1547470870.38,26757,0.0,0.0,-9.99,-10.67,-10.53,0,*5F
1547470871.6,26758,0.0,0.0,-10.01,-10.57,-10.57,0,*6E
1547470872.82,26759,0.0,0.0,-10.01,-10.57,-10.57,0,*6F
1547470874.04,26760,0.0,0.0,-10.01,-10.57,-10.57,0,*65
1547470875.32,26761,0.0,0.0,-10.01,-10.67,-10.67,0,*64
1547470876.58,26762,0.0,0.0,-9.99,-10.71,-10.53,0,*5E
1547470877.83,26763,0.0,0.0,-10.01,-10.67,-10.57,0,*65
1547470879.09,26764,0.0,0.0,-9.99,-10.57,-10.67,0,*5B
1547470880.34,26765,0.0,0.0,-10.01,-10.67,-10.57,0,*63
1547470881.59,26766,0.0,0.0,-10.01,-10.67,-10.53,0,*64
1547470882.88,26767,0.0,0.0,-10.03,-10.75,-10.63,0,*67
1547470884.18,26768,0.0,0.0,-10.03,-10.63,-10.63,0,*6F
1547470885.45,26769,0.0,0.0,-10.03,-10.63,-10.57,0,*69
1547470886.7,26770,0.0,0.0,-10.01,-10.67,-10.57,0,*67
1547470888.0,26771,0.0,0.0,-9.99,-10.67,-10.67,0,*5C
1547470889.26,26772,0.0,0.0,-9.99,-10.57,-10.67,0,*5C
1547470890.54,26773,0.0,0.0,-10.01,-10.67,-10.67,0,*67
1547470891.83,26774,0.0,0.0,-10.03,-10.71,-10.71,0,*62
1547470893.08,26775,0.0,0.0,-10.01,-10.67,-10.57,0,*62
1547470894.32,26776,0.0,0.0,-9.99,-10.57,-10.57,0,*5B
1547470895.57,26777,0.0,0.0,-10.01,-10.57,-10.67,0,*60
1547470896.84,26778,0.0,0.0,-10.01,-10.67,-10.67,0,*6C
1547470898.13,26779,0.0,0.0,-10.01,-10.67,-10.67,0,*6D
1547470899.42,26780,0.0,0.0,-10.03,-10.71,-10.63,0,*6A
1547470900.72,26781,0.0,0.0,-10.03,-10.71,-10.63,0,*6B
1547470902.01,26782,0.0,0.0,-10.03,-10.75,-10.63,0,*6C
1547470903.3,26783,0.0,0.0,-10.03,-10.71,-10.71,0,*6A
1547470904.57,26784,0.0,0.0,-10.05,-10.67,-10.75,0,*68
1547470905.87,26785,0.0,0.0,-10.03,-10.71,-10.71,0,*6C
1547470907.16,26786,0.0,0.0,-10.03,-10.75,-10.71,0,*6B
1547470908.43,26787,0.0,0.0,-10.05,-10.75,-10.67,0,*6B
1547470909.72,26788,0.0,0.0,-10.03,-10.75,-10.71,0,*65
1547470911.01,26789,0.0,0.0,-10.03,-10.75,-10.63,0,*67
1547470912.3,26790,0.0,0.0,-10.03,-10.71,-10.63,0,*6B
1547470913.58,26791,0.0,0.0,-10.01,-10.67,-10.67,0,*6B
1547470914.86,26792,0.0,0.0,-10.01,-10.67,-10.67,0,*68
1547470916.11,26793,0.0,0.0,-10.01,-10.71,-10.57,0,*6D
1547470917.4,26794,0.0,0.0,-10.03,-10.71,-10.71,0,*6C
1547470918.7,26795,0.0,0.0,-10.03,-10.71,-10.75,0,*69
1547470919.96,26796,0.0,0.0,-10.05,-10.75,-10.75,0,*68
1547470921.25,26797,0.0,0.0,-10.03,-10.71,-10.71,0,*6F
1547470922.55,26798,0.0,0.0,-10.03,-10.71,-10.71,0,*60
1547470923.84,26799,0.0,0.0,-10.03,-10.75,-10.71,0,*65
1547470925.13,26800,0.0,0.0,-10.03,-10.71,-10.71,0,*6E
1547470926.42,26801,0.0,0.0,-10.03,-10.71,-10.63,0,*6C
1547470927.72,26802,0.0,0.0,-10.03,-10.71,-10.71,0,*6C
1547470929.01,26803,0.0,0.0,-10.03,-10.71,-10.71,0,*6D
1547470930.28,26804,0.0,0.0,-10.01,-10.71,-10.67,0,*6F
1547470931.56,26805,0.0,0.0,-10.05,-10.67,-10.75,0,*6E
1547470932.85,26806,0.0,0.0,-10.03,-10.63,-10.63,0,*68
1547470934.14,26807,0.0,0.0,-10.03,-10.71,-10.71,0,*69
1547470935.42,26808,0.0,0.0,-10.05,-10.67,-10.67,0,*60
1547470936.7,26809,0.0,0.0,-10.05,-10.67,-10.67,0,*61
1547470937.96,26810,0.0,0.0,-10.03,-10.75,-10.57,0,*6F
1547470939.25,26811,0.0,0.0,-10.03,-10.75,-10.71,0,*6A
1547470940.52,26812,0.0,0.0,-10.03,-10.71,-10.57,0,*69
1547470941.79,26813,0.0,0.0,-10.03,-10.71,-10.57,0,*68
1547470943.09,26814,0.0,0.0,-10.03,-10.71,-10.63,0,*68
1547470944.38,26815,0.0,0.0,-10.03,-10.75,-10.63,0,*6D
1547470945.65,26816,0.0,0.0,-10.05,-10.75,-10.67,0,*6C
1547470946.95,26817,0.0,0.0,-10.03,-10.63,-10.63,0,*68
1547470948.22,26818,0.0,0.0,-10.05,-10.67,-10.67,0,*61
1547470949.52,26819,0.0,0.0,-10.03,-10.71,-10.63,0,*65
1547470950.79,26820,0.0,0.0,-10.05,-10.67,-10.67,0,*6A
1547470952.09,26821,0.0,0.0,-10.03,-10.75,-10.63,0,*6A
1547470953.38,26822,0.0,0.0,-10.03,-10.71,-10.63,0,*6D
1547470954.68,26823,0.0,0.0,-10.03,-10.63,-10.63,0,*6F
1547470955.96,26824,0.0,0.0,-10.05,-10.67,-10.67,0,*6E
1547470957.23,26825,0.0,0.0,-10.05,-10.67,-10.67,0,*6F
1547470958.51,26826,0.0,0.0,-10.05,-10.67,-10.67,0,*6C
1547470959.78,26827,0.0,0.0,-10.05,-10.75,-10.63,0,*6A
1547470961.05,26828,0.0,0.0,-10.05,-10.75,-10.67,0,*61
1547470962.34,26829,0.0,0.0,-10.03,-10.71,-10.63,0,*66
1547470963.61,26830,0.0,0.0,-10.05,-10.75,-10.63,0,*6C
1547470964.88,26831,0.0,0.0,-10.05,-10.75,-10.67,0,*69
1547470966.15,26832,0.0,0.0,-10.05,-10.75,-10.67,0,*6A
1547470967.42,26833,0.0,0.0,-10.05,-10.71,-10.67,0,*6F
1547470968.69,26834,0.0,0.0,-10.05,-10.79,-10.67,0,*60
1547470969.96,26835,0.0,0.0,-10.05,-10.75,-10.67,0,*6D
1547470971.26,26836,0.0,0.0,-10.03,-10.75,-10.63,0,*6C
1547470972.53,26837,0.0,0.0,-10.05,-10.79,-10.67,0,*63
1547470973.82,26838,0.0,0.0,-10.03,-10.71,-10.63,0,*66
1547470975.1,26839,0.0,0.0,-10.05,-10.67,-10.67,0,*62
1547470976.36,26840,0.0,0.0,-10.05,-10.75,-10.75,0,*6C
1547470977.66,26841,0.0,0.0,-10.03,-10.71,-10.71,0,*6B
1547470978.95,26842,0.0,0.0,-10.03,-10.63,-10.63,0,*68
1547470980.23,26843,0.0,0.0,-10.05,-10.67,-10.75,0,*6C
1547470981.5,26844,0.0,0.0,-10.05,-10.67,-10.79,0,*67
1547470982.77,26845,0.0,0.0,-10.03,-10.75,-10.57,0,*6F
1547470984.06,26846,0.0,0.0,-10.03,-10.63,-10.63,0,*6C
1547470985.33,26847,0.0,0.0,-10.05,-10.63,-10.67,0,*6F
1547470986.61,26848,0.0,0.0,-10.05,-10.67,-10.67,0,*64
1547470987.88,26849,0.0,0.0,-10.05,-10.67,-10.75,0,*66
1547470989.15,26850,0.0,0.0,-10.05,-10.75,-10.67,0,*6E
1547470990.43,26851,0.0,0.0,-10.05,-10.67,-10.67,0,*6C
1547470991.71,26852,0.0,0.0,-10.05,-10.67,-10.67,0,*6F
1547470993.0,26853,0.0,0.0,-10.03,-10.71,-10.63,0,*6B
1547470994.28,26854,0.0,0.0,-10.05,-10.67,-10.67,0,*69
1547470995.55,26855,0.0,0.0,-10.05,-10.75,-10.67,0,*6B
1547470996.83,26856,0.0,0.0,-10.05,-10.67,-10.67,0,*6B
1547470998.12,26857,0.0,0.0,-10.03,-10.63,-10.63,0,*6C
1547470999.39,26858,0.0,0.0,-10.05,-10.75,-10.63,0,*62
1547471000.67,26859,0.0,0.0,-10.05,-10.67,-10.67,0,*64
1547471001.94,26860,0.0,0.0,-10.05,-10.63,-10.63,0,*6E
1547471003.23,26861,0.0,0.0,-10.03,-10.63,-10.67,0,*6D
1547471004.53,26862,0.0,0.0,-10.03,-10.63,-10.63,0,*6A
1547471005.81,26863,0.0,0.0,-10.05,-10.67,-10.67,0,*6D
1547471007.08,26864,0.0,0.0,-10.05,-10.67,-10.63,0,*6E
1547471008.35,26865,0.0,0.0,-10.05,-10.67,-10.63,0,*6F
1547471009.63,26866,0.0,0.0,-10.05,-10.67,-10.67,0,*68
1547471010.9,26867,0.0,0.0,-10.05,-10.75,-10.67,0,*6A
1547471012.17,26868,0.0,0.0,-10.05,-10.63,-10.63,0,*66
1547471013.44,26869,0.0,0.0,-10.03,-10.75,-10.57,0,*61
1547471014.71,26870,0.0,0.0,-10.05,-10.75,-10.67,0,*6C
1547471015.98,26871,0.0,0.0,-10.05,-10.75,-10.67,0,*6D
1547471017.27,26872,0.0,0.0,-10.03,-10.71,-10.63,0,*68
1547471018.54,26873,0.0,0.0,-10.05,-10.71,-10.63,0,*6F
1547471019.81,26874,0.0,0.0,-10.05,-10.79,-10.75,0,*67
1547471021.08,26875,0.0,0.0,-10.05,-10.75,-10.67,0,*69
1547471022.35,26876,0.0,0.0,-10.05,-10.75,-10.75,0,*69
1547471023.64,26877,0.0,0.0,-10.03,-10.71,-10.71,0,*6E
1547471024.91,26878,0.0,0.0,-10.05,-10.79,-10.75,0,*6B
1547471026.17,26879,0.0,0.0,-10.05,-10.75,-10.75,0,*66
1547471027.44,26880,0.0,0.0,-10.05,-10.75,-10.75,0,*60
1547471028.7,26881,0.0,0.0,-10.05,-10.75,-10.75,0,*61
1547471029.98,26882,0.0,0.0,-10.05,-10.79,-10.67,0,*6D
1547471031.27,26883,0.0,0.0,-10.03,-10.71,-10.63,0,*66
1547471032.54,26884,0.0,0.0,-10.05,-10.75,-10.67,0,*67
1547471033.81,26885,0.0,0.0,-10.05,-10.75,-10.67,0,*66
1547471035.08,26886,0.0,0.0,-10.05,-10.75,-10.63,0,*61
1547471036.35,26887,0.0,0.0,-10.05,-10.75,-10.67,0,*64
1547471037.62,26888,0.0,0.0,-10.05,-10.79,-10.67,0,*67
1547471038.89,26889,0.0,0.0,-10.05,-10.75,-10.67,0,*6A
1547471040.16,26890,0.0,0.0,-10.05,-10.75,-10.67,0,*62
1547471041.42,26891,0.0,0.0,-10.05,-10.75,-10.79,0,*6C
1547471042.69,26892,0.0,0.0,-10.05,-10.75,-10.75,0,*63
1547471043.98,26893,0.0,0.0,-10.07,-10.79,-10.75,0,*6C
1547471045.25,26894,0.0,0.0,-10.05,-10.75,-10.75,0,*65
1547471046.52,26895,0.0,0.0,-10.05,-10.79,-10.75,0,*68
1547471047.81,26896,0.0,0.0,-10.07,-10.79,-10.79,0,*65
1547471049.08,26897,0.0,0.0,-10.05,-10.75,-10.75,0,*66
1547471050.34,26898,0.0,0.0,-10.05,-10.75,-10.75,0,*69
1547471051.61,26899,0.0,0.0,-10.05,-10.75,-10.75,0,*68
1547471052.88,26900,0.0,0.0,-10.05,-10.75,-10.75,0,*69
1547471054.15,26901,0.0,0.0,-10.05,-10.75,-10.67,0,*6B
1547471055.42,26902,0.0,0.0,-10.09,-10.75,-10.67,0,*64
1547471056.72,26903,0.0,0.0,-10.07,-10.67,-10.75,0,*6B
1547471058.02,26904,0.0,0.0,-10.07,-10.67,-10.75,0,*6C
1547471059.3,26905,0.0,0.0,-10.05,-10.67,-10.67,0,*6C
1547471060.59,26906,0.0,0.0,-10.07,-10.79,-10.67,0,*62
1547471061.89,26907,0.0,0.0,-10.07,-10.75,-10.67,0,*6F
1547471063.19,26908,0.0,0.0,-10.07,-10.75,-10.67,0,*60
1547471064.48,26909,0.0,0.0,-10.07,-10.75,-10.67,0,*61
1547471065.77,26910,0.0,0.0,-10.07,-10.75,-10.79,0,*66
1547471067.07,26911,0.0,0.0,-10.07,-10.75,-10.67,0,*68
1547471068.37,26912,0.0,0.0,-10.07,-10.75,-10.67,0,*6B
1547471069.66,26913,0.0,0.0,-10.07,-10.75,-10.79,0,*65
1547471070.96,26914,0.0,0.0,-10.07,-10.75,-10.67,0,*6D
1547471072.25,26915,0.0,0.0,-10.07,-10.79,-10.63,0,*64
1547471073.54,26916,0.0,0.0,-10.07,-10.75,-10.67,0,*6F
1547471074.85,26917,0.0,0.0,-10.07,-10.67,-10.67,0,*6D
1547471076.12,26918,0.0,0.0,-10.09,-10.75,-10.67,0,*6F
1547471077.41,26919,0.0,0.0,-10.09,-10.67,-10.67,0,*6D
1547471078.71,26920,0.0,0.0,-10.07,-10.67,-10.67,0,*69
1547471080.0,26921,0.0,0.0,-10.07,-10.79,-10.75,0,*64
1547471081.28,26922,0.0,0.0,-10.09,-10.75,-10.67,0,*66
1547471082.57,26923,0.0,0.0,-10.07,-10.75,-10.75,0,*6A
1547471083.87,26924,0.0,0.0,-10.07,-10.75,-10.67,0,*6E
1547471085.16,26925,0.0,0.0,-10.07,-10.75,-10.75,0,*6C
1547471086.45,26926,0.0,0.0,-10.07,-10.75,-10.75,0,*6F
1547471087.74,26927,0.0,0.0,-10.07,-10.75,-10.75,0,*6E
1547471089.05,26928,0.0,0.0,-10.07,-10.67,-10.67,0,*61
1547471090.32,26929,0.0,0.0,-10.09,-10.75,-10.67,0,*6D
1547471091.61,26930,0.0,0.0,-10.07,-10.79,-10.79,0,*68
1547471092.88,26931,0.0,0.0,-10.05,-10.75,-10.75,0,*6B
1547471094.18,26932,0.0,0.0,-10.07,-10.67,-10.75,0,*69
1547471095.48,26933,0.0,0.0,-10.07,-10.75,-10.67,0,*68
1547471096.77,26934,0.0,0.0,-10.07,-10.75,-10.67,0,*6F
1547471098.07,26935,0.0,0.0,-10.07,-10.79,-10.67,0,*62
1547471099.36,26936,0.0,0.0,-10.07,-10.75,-10.67,0,*6D
1547471100.64,26937,0.0,0.0,-10.09,-10.75,-10.67,0,*62
1547471101.94,26938,0.0,0.0,-10.07,-10.75,-10.67,0,*63
1547471103.21,26939,0.0,0.0,-10.09,-10.75,-10.67,0,*6C
1547471104.49,26940,0.0,0.0,-10.09,-10.75,-10.67,0,*62
1547471105.78,26941,0.0,0.0,-10.07,-10.75,-10.75,0,*6E
1547471107.05,26942,0.0,0.0,-10.09,-10.75,-10.75,0,*63
1547471108.36,26943,0.0,0.0,-10.07,-10.67,-10.67,0,*6C
1547471109.64,26944,0.0,0.0,-10.09,-10.67,-10.75,0,*66
1547471110.92,26945,0.0,0.0,-10.09,-10.67,-10.67,0,*64
1547471112.21,26946,0.0,0.0,-10.07,-10.75,-10.63,0,*6E
1547471113.52,26947,0.0,0.0,-10.07,-10.67,-10.67,0,*68
1547471114.79,26948,0.0,0.0,-10.09,-10.75,-10.67,0,*6A
1547471116.09,26949,0.0,0.0,-10.07,-10.67,-10.63,0,*62
1547471117.39,26950,0.0,0.0,-10.07,-10.67,-10.67,0,*6E
1547471118.7,26951,0.0,0.0,-10.07,-10.67,-10.67,0,*6F
1547471119.98,26952,0.0,0.0,-10.09,-10.67,-10.67,0,*62
1547471121.28,26953,0.0,0.0,-10.07,-10.67,-10.67,0,*6D
1547471122.56,26954,0.0,0.0,-10.09,-10.67,-10.63,0,*60
1547471123.84,26955,0.0,0.0,-10.09,-10.75,-10.67,0,*66
1547471125.13,26956,0.0,0.0,-10.07,-10.75,-10.67,0,*6B
1547471126.43,26957,0.0,0.0,-10.07,-10.75,-10.67,0,*6A
1547471127.7,26958,0.0,0.0,-10.09,-10.75,-10.67,0,*6B
1547471129.0,26959,0.0,0.0,-10.07,-10.67,-10.75,0,*64
1547471130.31,26960,0.0,0.0,-10.07,-10.67,-10.67,0,*6D
1547471131.59,26961,0.0,0.0,-10.09,-10.75,-10.67,0,*61
1547471132.88,26962,0.0,0.0,-10.07,-10.67,-10.67,0,*6F
1547471134.16,26963,0.0,0.0,-10.09,-10.75,-10.75,0,*60
1547471135.44,26964,0.0,0.0,-10.09,-10.67,-10.67,0,*67
1547471136.72,26965,0.0,0.0,-10.09,-10.75,-10.67,0,*65
1547471137.99,26966,0.0,0.0,-10.09,-10.75,-10.67,0,*66
1547471139.27,26967,0.0,0.0,-10.09,-10.67,-10.67,0,*64
1547471140.56,26968,0.0,0.0,-10.09,-10.67,-10.67,0,*6B
1547471141.86,26969,0.0,0.0,-10.07,-10.67,-10.67,0,*64
1547471143.14,26970,0.0,0.0,-10.09,-10.67,-10.75,0,*61
1547471144.41,26971,0.0,0.0,-10.09,-10.75,-10.67,0,*60
1547471145.69,26972,0.0,0.0,-10.09,-10.75,-10.67,0,*63
1547471146.97,26973,0.0,0.0,-10.09,-10.75,-10.67,0,*62
1547471148.24,26974,0.0,0.0,-10.09,-10.75,-10.67,0,*65
1547471149.54,26975,0.0,0.0,-10.07,-10.75,-10.67,0,*6A
1547471150.82,26976,0.0,0.0,-10.09,-10.75,-10.67,0,*67
1547471152.09,26977,0.0,0.0,-10.09,-10.75,-10.67,0,*66
1547471153.37,26978,0.0,0.0,-10.09,-10.67,-10.67,0,*6A
1547471154.65,26979,0.0,0.0,-10.09,-10.67,-10.75,0,*68
1547471155.93,26980,0.0,0.0,-10.09,-10.67,-10.79,0,*62
1547471157.21,26981,0.0,0.0,-10.09,-10.79,-10.67,0,*63
1547471158.48,26982,0.0,0.0,-10.09,-10.75,-10.63,0,*68
1547471159.76,26983,0.0,0.0,-10.09,-10.75,-10.67,0,*6D
1547471161.04,26984,0.0,0.0,-10.09,-10.75,-10.67,0,*6A
1547471162.31,26985,0.0,0.0,-10.09,-10.75,-10.67,0,*6B
1547471163.58,26986,0.0,0.0,-10.09,-10.75,-10.63,0,*6C
1547471164.87,26987,0.0,0.0,-10.09,-10.67,-10.67,0,*6A
1547471166.15,26988,0.0,0.0,-10.09,-10.67,-10.67,0,*65
1547471167.45,26989,0.0,0.0,-10.07,-10.67,-10.75,0,*69
1547471168.72,26990,0.0,0.0,-10.09,-10.79,-10.67,0,*63
1547471170.0,26991,0.0,0.0,-10.09,-10.79,-10.67,0,*62
1547471171.27,26992,0.0,0.0,-10.09,-10.75,-10.75,0,*6E
1547471172.56,26993,0.0,0.0,-10.13,-10.71,-10.71,0,*64
1547471173.85,26994,0.0,0.0,-10.09,-10.67,-10.67,0,*68
1547471175.12,26995,0.0,0.0,-10.09,-10.75,-10.67,0,*6A
1547471176.4,26996,0.0,0.0,-10.09,-10.75,-10.63,0,*6D
1547471177.68,26997,0.0,0.0,-10.09,-10.67,-10.67,0,*6B
1547471178.96,26998,0.0,0.0,-10.09,-10.67,-10.67,0,*64
1547471180.24,26999,0.0,0.0,-10.09,-10.67,-10.75,0,*66
1547471181.52,27000,0.0,0.0,-10.09,-10.67,-10.67,0,*6D
1547471182.8,27001,0.0,0.0,-10.09,-10.75,-10.67,0,*6F
1547471184.07,27002,0.0,0.0,-10.09,-10.75,-10.67,0,*6C
1547471185.37,27003,0.0,0.0,-10.07,-10.75,-10.75,0,*60
1547471186.64,27004,0.0,0.0,-10.09,-10.75,-10.75,0,*69
1547471187.92,27005,0.0,0.0,-10.09,-10.67,-10.67,0,*68
1547471189.2,27006,0.0,0.0,-10.09,-10.67,-10.75,0,*68
1547471190.47,27007,0.0,0.0,-10.09,-10.75,-10.75,0,*6A
1547471191.76,27008,0.0,0.0,-10.09,-10.67,-10.67,0,*65
1547471193.04,27009,0.0,0.0,-10.09,-10.67,-10.67,0,*64
1547471194.31,27010,0.0,0.0,-10.09,-10.75,-10.63,0,*6B
1547471195.6,27011,0.0,0.0,-10.13,-10.71,-10.71,0,*66
1547471196.89,27012,0.0,0.0,-10.13,-10.79,-10.71,0,*6D
1547471198.17,27013,0.0,0.0,-10.09,-10.75,-10.67,0,*6C
1547471199.45,27014,0.0,0.0,-10.09,-10.75,-10.67,0,*6B
1547471200.72,27015,0.0,0.0,-10.09,-10.63,-10.75,0,*6E
1547471202.0,27016,0.0,0.0,-10.09,-10.67,-10.67,0,*6A
1547471203.29,27017,0.0,0.0,-10.09,-10.67,-10.67,0,*6B
1547471204.56,27018,0.0,0.0,-10.09,-10.75,-10.67,0,*67
1547471205.84,27019,0.0,0.0,-10.09,-10.75,-10.67,0,*66
1547471207.13,27020,0.0,0.0,-10.13,-10.71,-10.71,0,*64
1547471208.42,27021,0.0,0.0,-10.13,-10.79,-10.71,0,*6D
1547471209.71,27022,0.0,0.0,-10.13,-10.79,-10.67,0,*69
1547471211.0,27023,0.0,0.0,-10.13,-10.79,-10.71,0,*6F
1547471212.3,27024,0.0,0.0,-10.13,-10.71,-10.71,0,*60
1547471213.59,27025,0.0,0.0,-10.07,-10.67,-10.63,0,*60
1547471214.89,27026,0.0,0.0,-10.13,-10.71,-10.71,0,*62
1547471216.18,27027,0.0,0.0,-10.13,-10.79,-10.71,0,*6B
1547471217.46,27028,0.0,0.0,-10.13,-10.79,-10.71,0,*64
1547471218.76,27029,0.0,0.0,-10.13,-10.79,-10.67,0,*62
1547471220.05,27030,0.0,0.0,-10.13,-10.79,-10.71,0,*6D
1547471221.34,27031,0.0,0.0,-10.13,-10.71,-10.71,0,*64
1547471222.64,27032,0.0,0.0,-10.13,-10.71,-10.67,0,*60
1547471223.92,27033,0.0,0.0,-10.09,-10.67,-10.67,0,*6D
1547471225.21,27034,0.0,0.0,-10.13,-10.71,-10.71,0,*61
1547471226.51,27035,0.0,0.0,-10.13,-10.79,-10.67,0,*6F
1547471227.8,27036,0.0,0.0,-10.13,-10.79,-10.71,0,*6B
1547471229.03,27037,0.0,0.0,-10.15,-10.85,-10.71,0,*6F
1547471230.32,27038,0.0,0.0,-10.13,-10.79,-10.79,0,*6D
1547471231.61,27039,0.0,0.0,-10.13,-10.79,-10.79,0,*6C
1547471232.9,27040,0.0,0.0,-10.13,-10.79,-10.71,0,*6A
1547471234.19,27041,0.0,0.0,-10.13,-10.79,-10.71,0,*6B
1547471235.49,27042,0.0,0.0,-10.13,-10.71,-10.67,0,*67
1547471236.78,27043,0.0,0.0,-10.13,-10.79,-10.71,0,*69
1547471238.05,27044,0.0,0.0,-10.09,-10.79,-10.67,0,*62
1547471239.33,27045,0.0,0.0,-10.09,-10.75,-10.63,0,*6B
1547471240.6,27046,0.0,0.0,-10.09,-10.79,-10.75,0,*63
1547471241.89,27047,0.0,0.0,-10.13,-10.71,-10.79,0,*6D
1547471243.18,27048,0.0,0.0,-10.13,-10.71,-10.71,0,*6A
1547471244.47,27049,0.0,0.0,-10.13,-10.71,-10.71,0,*6B
1547471245.76,27050,0.0,0.0,-10.13,-10.79,-10.71,0,*6B
1547471247.06,27051,0.0,0.0,-10.13,-10.71,-10.79,0,*6A
1547471248.35,27052,0.0,0.0,-10.13,-10.79,-10.67,0,*6E
1547471249.64,27053,0.0,0.0,-10.13,-10.79,-10.71,0,*68
1547471250.93,27054,0.0,0.0,-10.13,-10.79,-10.71,0,*6F
1547471252.22,27055,0.0,0.0,-10.13,-10.79,-10.71,0,*6E
1547471253.51,27056,0.0,0.0,-10.13,-10.79,-10.71,0,*6D
1547471254.74,27057,0.0,0.0,-10.15,-10.85,-10.75,0,*6D
1547471256.03,27058,0.0,0.0,-10.13,-10.79,-10.71,0,*63
1547471257.32,27059,0.0,0.0,-10.13,-10.71,-10.71,0,*6A
1547471258.58,27060,0.0,0.0,-10.15,-10.79,-10.71,0,*6E
1547471259.87,27061,0.0,0.0,-10.13,-10.79,-10.71,0,*69
1547471261.16,27062,0.0,0.0,-10.13,-10.71,-10.71,0,*62
1547471262.45,27063,0.0,0.0,-10.13,-10.79,-10.71,0,*6B
1547471263.71,27064,0.0,0.0,-10.13,-10.85,-10.71,0,*6F
1547471264.95,27065,0.0,0.0,-10.15,-10.79,-10.89,0,*6C
1547471266.24,27066,0.0,0.0,-10.13,-10.79,-10.79,0,*66
1547471267.47,27067,0.0,0.0,-10.15,-10.85,-10.75,0,*6E
1547471268.77,27068,0.0,0.0,-10.13,-10.79,-10.79,0,*68
1547471270.06,27069,0.0,0.0,-10.13,-10.79,-10.67,0,*66
1547471271.35,27070,0.0,0.0,-10.13,-10.79,-10.71,0,*69
1547471272.64,27071,0.0,0.0,-10.13,-10.79,-10.71,0,*68
1547471273.87,27072,0.0,0.0,-10.15,-10.85,-10.71,0,*6E
1547471275.11,27073,0.0,0.0,-10.15,-10.89,-10.75,0,*67
1547471276.37,27074,0.0,0.0,-10.13,-10.79,-10.85,0,*66
1547471277.63,27075,0.0,0.0,-10.13,-10.85,-10.71,0,*6F
1547471278.92,27076,0.0,0.0,-10.13,-10.79,-10.71,0,*6F
1547471280.21,27077,0.0,0.0,-10.13,-10.79,-10.71,0,*6E
1547471281.44,27078,0.0,0.0,-10.15,-10.85,-10.75,0,*60
1547471282.71,27079,0.0,0.0,-10.13,-10.85,-10.79,0,*6B
1547471283.94,27080,0.0,0.0,-10.15,-10.85,-10.79,0,*6B
1547471285.23,27081,0.0,0.0,-10.13,-10.79,-10.71,0,*67
1547471286.49,27082,0.0,0.0,-10.13,-10.85,-10.79,0,*6F
1547471287.78,27083,0.0,0.0,-10.13,-10.79,-10.71,0,*65
1547471289.07,27084,0.0,0.0,-10.13,-10.71,-10.71,0,*6A
1547471290.36,27085,0.0,0.0,-10.13,-10.79,-10.71,0,*63
1547471291.65,27086,0.0,0.0,-10.13,-10.79,-10.71,0,*60
1547471292.91,27087,0.0,0.0,-10.15,-10.75,-10.75,0,*6F
1547471294.15,27088,0.0,0.0,-10.15,-10.85,-10.71,0,*6B
1547471295.41,27089,0.0,0.0,-10.15,-10.75,-10.75,0,*61
1547471296.61,27090,0.0,0.0,-10.15,-10.85,-10.85,0,*69
1547471297.9,27091,0.0,0.0,-10.13,-10.79,-10.71,0,*66
1547471299.19,27092,0.0,0.0,-10.13,-10.79,-10.71,0,*65
1547471300.42,27093,0.0,0.0,-10.15,-10.89,-10.75,0,*69
1547471301.72,27094,0.0,0.0,-10.13,-10.79,-10.67,0,*64
1547471302.95,27095,0.0,0.0,-10.15,-10.85,-10.71,0,*67
1547471304.21,27096,0.0,0.0,-10.15,-10.75,-10.75,0,*6F
1547471305.45,27097,0.0,0.0,-10.15,-10.85,-10.75,0,*61
1547471306.69,27098,0.0,0.0,-10.15,-10.85,-10.75,0,*6E
1547471307.98,27099,0.0,0.0,-10.13,-10.71,-10.67,0,*61
1547471309.22,27100,0.0,0.0,-10.15,-10.85,-10.75,0,*6E
1547471310.46,27101,0.0,0.0,-10.15,-10.85,-10.75,0,*6F
1547471311.66,27102,0.0,0.0,-10.15,-10.85,-10.85,0,*63
1547471312.95,27103,0.0,0.0,-10.13,-10.71,-10.79,0,*6C
1547471314.18,27104,0.0,0.0,-10.15,-10.75,-10.85,0,*6A
1547471315.39,27105,0.0,0.0,-10.15,-10.85,-10.89,0,*68
1547471316.59,27106,0.0,0.0,-10.15,-10.85,-10.85,0,*67
1547471317.79,27107,0.0,0.0,-10.15,-10.85,-10.85,0,*66
1547471319.03,27108,0.0,0.0,-10.15,-10.75,-10.89,0,*6A
1547471320.23,27109,0.0,0.0,-10.15,-10.89,-10.85,0,*64
1547471321.43,27110,0.0,0.0,-10.15,-10.85,-10.85,0,*60
1547471322.63,27111,0.0,0.0,-10.15,-10.85,-10.85,0,*61
1547471323.83,27112,0.0,0.0,-10.15,-10.85,-10.85,0,*62
1547471325.04,27113,0.0,0.0,-10.15,-10.85,-10.89,0,*6F
1547471326.25,27114,0.0,0.0,-10.15,-10.85,-10.89,0,*68
1547471327.51,27115,0.0,0.0,-10.15,-10.79,-10.75,0,*69
1547471328.75,27116,0.0,0.0,-10.15,-10.85,-10.75,0,*69
1547471330.04,27117,0.0,0.0,-10.13,-10.79,-10.79,0,*61
1547471331.27,27118,0.0,0.0,-10.15,-10.89,-10.75,0,*6B
1547471332.51,27119,0.0,0.0,-10.15,-10.85,-10.71,0,*62
1547471333.71,27120,0.0,0.0,-10.15,-10.89,-10.85,0,*6F
1547471334.91,27121,0.0,0.0,-10.15,-10.85,-10.85,0,*62
1547471336.11,27122,0.0,0.0,-10.15,-10.85,-10.85,0,*61
1547471337.31,27123,0.0,0.0,-10.15,-10.85,-10.85,0,*60
1547471338.52,27124,0.0,0.0,-10.15,-10.85,-10.85,0,*67
1547471339.75,27125,0.0,0.0,-10.15,-10.85,-10.71,0,*6D
1547471340.98,27126,0.0,0.0,-10.15,-10.85,-10.75,0,*6A
1547471342.18,27127,0.0,0.0,-10.15,-10.85,-10.85,0,*64
1547471343.41,27128,0.0,0.0,-10.15,-10.75,-10.85,0,*64
1547471344.68,27129,0.0,0.0,-10.19,-10.75,-10.75,0,*66
1547471345.92,27130,0.0,0.0,-10.19,-10.85,-10.75,0,*61
1547471347.17,27131,0.0,0.0,-10.19,-10.89,-10.75,0,*6C
1547471348.41,27132,0.0,0.0,-10.19,-10.89,-10.75,0,*6F
1547471349.62,27133,0.0,0.0,-10.19,-10.89,-10.85,0,*61
1547471350.85,27134,0.0,0.0,-10.19,-10.75,-10.85,0,*65
1547471352.09,27135,0.0,0.0,-10.19,-10.89,-10.75,0,*68
1547471353.34,27136,0.0,0.0,-10.19,-10.85,-10.75,0,*67
1547471354.58,27137,0.0,0.0,-10.19,-10.85,-10.75,0,*66
1547471355.82,27138,0.0,0.0,-10.19,-10.85,-10.75,0,*69